Terug naar catalogus

ATLAS 5 CENTAUR DEB

ActiefHEO
NORAD 44673·DEBRIS·🇺🇸 United States

Gelanceerd Oct 17, 2018 vanaf Cape Canaveral Space Force Station

Loading…

Volgende Passages (komende 24 uur)

TLE

VersSource: Space-Track

Epoch: Sep 14, 2026, 11:47 UTC

1 44673U 18079AK  26257.49134477 -.00000166  00000-0  00000-0 0  9994
2 44673  13.4679  36.2366 4709947 309.6906  17.3921  1.77545520 51459

Volg ATLAS 5 CENTAUR DEB in realtime met AllMySat

Download on the App Store